#�ϑ�����,���ϕ���,���ϕ���,�ő啗��,�ő啗����������,�ő�u�ԕ���,�ő�u�ԕ�����������
#(�N����),(m/s)   ,(16����),(m/s)   ,(16����)        ,(m/s)       ,(16����)            
2015/9/9 0:01,1.2,11,1.2,12,1.6,12
2015/9/9 0:02,1.3,12,1.3,12,2,12
2015/9/9 0:03,1.3,12,1.3,12,2.1,12
2015/9/9 0:04,1.2,12,1.3,12,1.5,13
2015/9/9 0:05,1.2,12,1.3,12,1.5,12
2015/9/9 0:06,1.1,12,1.2,12,2.6,13
2015/9/9 0:07,1.1,12,1.1,12,1.5,16
2015/9/9 0:08,1,12,1.1,12,1.6,15
2015/9/9 0:09,0.9,13,1,12,1.8,16
2015/9/9 0:10,1,13,1,12,2.2,15
2015/9/9 0:11,1.1,14,1.1,12,2.5,15
2015/9/9 0:12,1.1,14,1.1,12,2.4,15
2015/9/9 0:13,1.1,14,1.1,12,1.4,15
2015/9/9 0:14,1.1,15,1.1,12,1.8,16
2015/9/9 0:15,1.1,15,1.1,12,1.3,15
2015/9/9 0:16,1.1,15,1.1,12,0.5,16
2015/9/9 0:17,1,15,1.1,12,0.1,12
2015/9/9 0:18,1,15,1.1,13,1.9,16
2015/9/9 0:19,0.9,15,1,13,0.5,15
2015/9/9 0:20,0.8,15,0.9,13,0.1,15
2015/9/9 0:21,0.6,15,0.8,14,1.4,14
2015/9/9 0:22,0.6,15,0.6,14,1.8,15
2015/9/9 0:23,0.7,14,0.7,14,2,14
2015/9/9 0:24,0.6,14,0.6,15,1.4,8
2015/9/9 0:25,0.6,14,0.6,15,1.4,8
2015/9/9 0:26,0.6,13,0.6,15,1,10
2015/9/9 0:27,0.7,12,0.7,15,1.3,9
2015/9/9 0:28,0.7,11,0.7,15,1,8
2015/9/9 0:29,0.7,10,0.7,15,1.3,8
2015/9/9 0:30,0.8,10,0.8,15,1,8
2015/9/9 0:31,0.8,9,0.8,10,0.5,9
2015/9/9 0:32,0.7,9,0.8,10,0.6,8
2015/9/9 0:33,0.6,8,0.7,10,0.8,7
2015/9/9 0:34,0.6,8,0.6,10,0.8,10
2015/9/9 0:35,0.5,8,0.5,10,0.9,9
2015/9/9 0:36,0.6,8,0.6,10,1.6,9
2015/9/9 0:37,0.6,8,0.6,10,1.8,9
2015/9/9 0:38,0.7,8,0.7,10,1.8,10
2015/9/9 0:39,0.7,9,0.7,10,1.9,9
2015/9/9 0:40,0.8,9,0.8,10,2.2,9
2015/9/9 0:41,0.8,9,0.8,9,1.5,10
2015/9/9 0:42,0.9,9,0.9,9,1.8,10
2015/9/9 0:43,0.9,9,0.9,9,1.3,9
2015/9/9 0:44,1,9,1,9,1.5,9
2015/9/9 0:45,1,10,1,9,0.6,9
2015/9/9 0:46,1,10,1,9,1.5,12
2015/9/9 0:47,1,10,1,9,1.5,13
2015/9/9 0:48,0.9,10,0.9,9,1.3,12
2015/9/9 0:49,0.8,11,0.9,9,0.9,12
2015/9/9 0:50,0.8,11,0.8,9,1.3,12
2015/9/9 0:51,0.8,11,0.8,9,1.4,11
2015/9/9 0:52,0.9,12,0.9,9,1.5,13
2015/9/9 0:53,1,12,1,9,3,12
2015/9/9 0:54,1.1,12,1.1,12,3,12
2015/9/9 0:55,1.3,12,1.3,12,2.4,13
2015/9/9 0:56,1.4,13,1.4,12,2.7,16
2015/9/9 0:57,1.4,13,1.4,12,2.6,15
2015/9/9 0:58,1.5,13,1.5,13,2,13
2015/9/9 0:59,1.6,13,1.6,13,2.5,13
2015/9/9 1:00,1.6,13,1.7,13,1.5,1
2015/9/9 1:01,1.6,14,1.7,13,2,15
2015/9/9 1:02,1.6,14,1.6,13,1.1,16
2015/9/9 1:03,1.4,14,1.6,13,1.5,3
2015/9/9 1:04,1.4,15,1.4,13,1.9,2
2015/9/9 1:05,1.4,16,1.4,13,2.5,2
2015/9/9 1:06,1.3,16,1.4,13,2.6,2
2015/9/9 1:07,1.4,1,1.4,13,2.6,3
2015/9/9 1:08,1.4,1,1.4,13,2.1,3
2015/9/9 1:09,1.4,2,1.4,13,2,2
2015/9/9 1:10,1.4,2,1.4,13,2,2
2015/9/9 1:11,1.4,2,1.4,14,1.5,2
2015/9/9 1:12,1.5,2,1.5,14,1.8,1
2015/9/9 1:13,1.5,2,1.5,2,2.5,1
2015/9/9 1:14,1.6,2,1.6,2,2.5,1
2015/9/9 1:15,1.6,2,1.6,2,2.2,1
2015/9/9 1:16,1.6,2,1.6,2,2.7,2
2015/9/9 1:17,1.5,2,1.6,2,2.5,1
2015/9/9 1:18,1.5,2,1.6,2,2.5,3
2015/9/9 1:19,1.6,2,1.6,2,2.5,2
2015/9/9 1:20,1.5,2,1.6,2,1.6,2
2015/9/9 1:21,1.5,2,1.5,2,1.5,1
2015/9/9 1:22,1.6,2,1.6,2,1.9,3
2015/9/9 1:23,1.5,2,1.6,2,1.9,3
2015/9/9 1:24,1.5,2,1.5,2,1.9,3
2015/9/9 1:25,1.5,2,1.5,2,1.8,3
2015/9/9 1:26,1.5,2,1.5,2,2.2,3
2015/9/9 1:27,1.4,3,1.5,2,1.9,3
2015/9/9 1:28,1.3,3,1.4,2,1.5,4
2015/9/9 1:29,1.3,3,1.3,2,1.4,6
2015/9/9 1:30,1.2,4,1.3,2,0.4,7
2015/9/9 1:31,1.1,4,1.2,2,0.6,6
2015/9/9 1:32,1,4,1.1,2,0.6,7
2015/9/9 1:33,0.9,5,1,2,0,7
2015/9/9 1:34,0.7,4,0.8,2,0,3
2015/9/9 1:35,0.5,4,0.7,2,0.1,1
2015/9/9 1:36,0.4,4,0.5,3,0,1
2015/9/9 1:37,0.2,4,0.3,3,0.1,1
2015/9/9 1:38,0.1,3,0.2,3,0.3,16
2015/9/9 1:39,0.1,2,0.1,3,0.9,16
2015/9/9 1:40,0.2,2,0.2,4,1.5,15
2015/9/9 1:41,0.3,1,0.3,4,1.6,15
2015/9/9 1:42,0.3,1,0.3,4,1.6,16
2015/9/9 1:43,0.5,16,0.5,5,1.5,16
2015/9/9 1:44,0.6,16,0.6,4,1.5,2
2015/9/9 1:45,0.6,16,0.6,16,1.5,2
2015/9/9 1:46,0.7,1,0.7,16,1.3,16
2015/9/9 1:47,0.7,1,0.7,16,0.5,1
2015/9/9 1:48,0.7,1,0.7,16,0.1,4
2015/9/9 1:49,0.7,1,0.7,16,0.1,8
2015/9/9 1:50,0.6,2,0.7,16,1,7
2015/9/9 1:51,0.6,3,0.6,16,1.1,6
2015/9/9 1:52,0.6,4,0.6,16,1.4,5
2015/9/9 1:53,0.5,4,0.6,16,1.3,6
2015/9/9 1:54,0.5,5,0.5,16,1,5
2015/9/9 1:55,0.5,5,0.5,16,0.9,5
2015/9/9 1:56,0.4,5,0.5,1,0.5,7
2015/9/9 1:57,0.4,5,0.4,1,0.1,5
2015/9/9 1:58,0.4,5,0.4,1,0.1,2
2015/9/9 1:59,0.4,5,0.4,1,0,2
2015/9/9 2:00,0.4,5,0.4,2,0.1,12
2015/9/9 2:01,0.4,5,0.4,3,1,14
2015/9/9 2:02,0.4,4,0.4,4,1.6,15
2015/9/9 2:03,0.4,2,0.4,4,2,15
2015/9/9 2:04,0.5,1,0.5,5,2.2,15
2015/9/9 2:05,0.7,15,0.7,15,2.1,15
2015/9/9 2:06,0.8,15,0.8,15,2.1,15
2015/9/9 2:07,0.9,15,0.9,15,1.6,16
2015/9/9 2:08,1,15,1,15,1.5,16
2015/9/9 2:09,1.1,15,1.1,14,1.6,15
2015/9/9 2:10,1.2,15,1.2,15,1.3,16
2015/9/9 2:11,1.3,15,1.3,15,1.5,15
2015/9/9 2:12,1.2,15,1.3,15,1.3,15
2015/9/9 2:13,1.1,15,1.2,15,1,15
2015/9/9 2:14,1,15,1.1,15,0.5,15
2015/9/9 2:15,0.8,15,1,15,0,15
2015/9/9 2:16,0.6,15,0.8,15,0.1,10
2015/9/9 2:17,0.5,15,0.6,15,0.1,3
2015/9/9 2:18,0.5,16,0.5,15,0.8,1
2015/9/9 2:19,0.3,16,0.4,15,0.1,1
2015/9/9 2:20,0.3,16,0.3,15,1.3,5
2015/9/9 2:21,0.4,1,0.4,15,1.4,5
2015/9/9 2:22,0.4,2,0.4,15,1.4,5
2015/9/9 2:23,0.4,3,0.4,15,1.1,6
2015/9/9 2:24,0.4,4,0.4,15,0.5,5
2015/9/9 2:25,0.4,4,0.4,15,0.9,6
2015/9/9 2:26,0.6,4,0.6,15,1.9,5
2015/9/9 2:27,0.7,5,0.7,5,1.9,5
2015/9/9 2:28,0.7,5,0.7,5,1.6,5
2015/9/9 2:29,0.8,5,0.8,5,1.5,5
2015/9/9 2:30,0.8,5,0.8,5,1,4
2015/9/9 2:31,0.7,5,0.8,5,0.4,16
2015/9/9 2:32,0.6,4,0.7,5,1.3,14
2015/9/9 2:33,0.6,4,0.6,5,1.4,14
2015/9/9 2:34,0.7,3,0.7,5,1.8,14
2015/9/9 2:35,0.7,2,0.7,5,2,16
2015/9/9 2:36,0.7,2,0.7,5,1.9,16
2015/9/9 2:37,0.8,1,0.8,5,1.9,16
2015/9/9 2:38,0.8,16,0.8,5,1.4,15
2015/9/9 2:39,0.8,16,0.8,5,2,15
2015/9/9 2:40,1,15,1,15,1.9,15
2015/9/9 2:41,1,15,1,15,1.5,15
2015/9/9 2:42,1,15,1.1,15,1.3,15
2015/9/9 2:43,1.1,15,1.1,15,1.6,1
2015/9/9 2:44,1.1,16,1.1,15,1.6,1
2015/9/9 2:45,1.1,16,1.1,15,2.1,1
2015/9/9 2:46,1.1,16,1.1,15,2,16
2015/9/9 2:47,1.1,16,1.1,15,1.3,1
2015/9/9 2:48,1,16,1.1,15,1,16
2015/9/9 2:49,0.9,16,1,15,0.8,2
2015/9/9 2:50,0.8,1,0.9,15,0.3,2
2015/9/9 2:51,0.7,1,0.8,15,0.1,2
2015/9/9 2:52,0.7,1,0.7,15,0.1,5
2015/9/9 2:53,0.6,1,0.7,15,0.4,12
2015/9/9 2:54,0.6,1,0.6,16,0.9,12
2015/9/9 2:55,0.5,1,0.6,16,1.4,15
2015/9/9 2:56,0.5,16,0.5,16,1.6,14
2015/9/9 2:57,0.6,16,0.6,16,2.2,15
2015/9/9 2:58,0.7,16,0.7,16,2.5,15
2015/9/9 2:59,0.8,15,0.8,16,2.7,15
2015/9/9 3:00,1,14,1,15,1.8,13
2015/9/9 3:01,1.1,14,1.1,14,2,13
2015/9/9 3:02,1.3,14,1.3,14,1.8,14
2015/9/9 3:03,1.4,14,1.4,14,2.1,15
2015/9/9 3:04,1.4,14,1.4,14,1.3,15
2015/9/9 3:05,1.5,14,1.5,14,2.7,12
2015/9/9 3:06,1.5,14,1.5,14,2.9,12
2015/9/9 3:07,1.5,13,1.5,14,2,13
2015/9/9 3:08,1.4,13,1.5,14,1.4,12
2015/9/9 3:09,1.4,13,1.4,14,3.1,11
2015/9/9 3:10,1.5,12,1.5,14,2.9,11
2015/9/9 3:11,1.5,12,1.5,14,2.9,10
2015/9/9 3:12,1.6,12,1.6,12,3.7,11
2015/9/9 3:13,1.7,11,1.7,11,3.2,10
2015/9/9 3:14,1.9,11,1.9,11,2.9,11
2015/9/9 3:15,1.9,11,1.9,11,2.4,10
2015/9/9 3:16,1.8,11,1.9,11,1.9,11
2015/9/9 3:17,1.8,11,1.8,11,1.6,10
2015/9/9 3:18,1.7,11,1.8,11,1.1,15
2015/9/9 3:19,1.6,11,1.7,11,0.4,12
2015/9/9 3:20,1.5,11,1.6,11,1.5,12
2015/9/9 3:21,1.3,12,1.5,11,1.3,12
2015/9/9 3:22,1.2,12,1.3,11,2,13
2015/9/9 3:23,1.1,12,1.2,11,1.5,13
2015/9/9 3:24,1,12,1,11,1.6,12
2015/9/9 3:25,0.8,13,0.9,11,1.3,14
2015/9/9 3:26,0.8,13,0.8,11,1.3,13
2015/9/9 3:27,0.8,13,0.8,11,1.4,13
2015/9/9 3:28,0.8,13,0.8,11,0.8,11
2015/9/9 3:29,0.8,12,0.8,11,0.6,12
2015/9/9 3:30,0.8,12,0.8,11,0.8,12
2015/9/9 3:31,0.8,12,0.8,12,1.4,12
2015/9/9 3:32,0.8,12,0.8,12,1.8,10
2015/9/9 3:33,0.7,12,0.8,12,1.6,12
2015/9/9 3:34,0.7,12,0.7,12,1.6,12
2015/9/9 3:35,0.7,12,0.7,13,1.8,9
2015/9/9 3:36,0.7,11,0.7,13,0.8,15
2015/9/9 3:37,0.6,11,0.7,13,0.3,14
2015/9/9 3:38,0.6,12,0.6,13,0.6,16
2015/9/9 3:39,0.6,12,0.6,12,0.5,11
2015/9/9 3:40,0.6,12,0.6,12,1.8,11
2015/9/9 3:41,0.7,12,0.7,12,2.2,12
2015/9/9 3:42,0.7,12,0.7,12,2.6,11
2015/9/9 3:43,0.8,12,0.8,12,2.7,11
2015/9/9 3:44,0.9,12,0.9,12,2,12
2015/9/9 3:45,1,12,1,12,1.6,12
2015/9/9 3:46,1,12,1,12,1.6,10
2015/9/9 3:47,1.2,11,1.2,12,2.4,11
2015/9/9 3:48,1.3,11,1.3,11,2.4,9
2015/9/9 3:49,1.3,11,1.3,11,1.4,10
2015/9/9 3:50,1.3,11,1.3,11,1.3,10
2015/9/9 3:51,1.2,11,1.3,11,1.6,10
2015/9/9 3:52,1.2,11,1.2,11,1.6,11
2015/9/9 3:53,1.1,11,1.2,11,1.6,11
2015/9/9 3:54,1.1,11,1.1,11,2.4,11
2015/9/9 3:55,1.1,10,1.1,11,1.8,10
2015/9/9 3:56,1,11,1.1,11,0.5,11
2015/9/9 3:57,0.9,11,1,11,1.1,6
2015/9/9 3:58,0.9,10,0.9,11,1.5,7
2015/9/9 3:59,0.9,10,0.9,11,0.8,9
2015/9/9 4:00,0.9,10,0.9,11,2,8
2015/9/9 4:01,0.9,10,0.9,11,2.2,10
2015/9/9 4:02,0.9,10,0.9,11,1.8,9
2015/9/9 4:03,0.9,10,0.9,11,2.4,16
2015/9/9 4:04,0.9,10,0.9,11,3,1
2015/9/9 4:05,0.9,12,0.9,10,1.5,1
2015/9/9 4:06,0.9,11,0.9,11,1,11
2015/9/9 4:07,1,11,1,11,1.8,12
2015/9/9 4:08,1,13,1,11,1.5,13
2015/9/9 4:09,1,14,1,11,0.6,14
2015/9/9 4:10,1,15,1,11,1.3,2
2015/9/9 4:11,1,15,1,11,1.8,16
2015/9/9 4:12,1.1,16,1.1,16,2.4,1
2015/9/9 4:13,1.1,16,1.1,16,1.9,3
2015/9/9 4:14,1.1,1,1.1,16,2.4,3
2015/9/9 4:15,1.1,2,1.1,16,2,4
2015/9/9 4:16,1.2,2,1.2,2,1.9,5
2015/9/9 4:17,1.2,3,1.2,2,1.9,5
2015/9/9 4:18,1.3,3,1.3,3,2.6,3
2015/9/9 4:19,1.5,3,1.5,3,2.9,3
2015/9/9 4:20,1.5,4,1.5,3,1.5,5
2015/9/9 4:21,1.5,4,1.5,3,2.2,6
2015/9/9 4:22,1.6,5,1.6,5,2.1,6
2015/9/9 4:23,1.6,5,1.6,5,2.5,6
2015/9/9 4:24,1.5,5,1.6,5,1.1,6
2015/9/9 4:25,1.3,5,1.4,5,0.5,16
2015/9/9 4:26,1.2,5,1.3,5,0.3,14
2015/9/9 4:27,1.1,4,1.2,5,1.4,16
2015/9/9 4:28,1,4,1.1,5,0.6,16
2015/9/9 4:29,0.8,3,1,5,1,16
2015/9/9 4:30,0.7,2,0.8,5,0.9,15
2015/9/9 4:31,0.7,1,0.7,5,0.9,16
2015/9/9 4:32,0.6,1,0.6,5,1,4
2015/9/9 4:33,0.5,16,0.6,5,2.1,1
2015/9/9 4:34,0.6,16,0.6,5,1.8,1
2015/9/9 4:35,0.7,16,0.7,5,1.9,3
2015/9/9 4:36,0.8,1,0.8,5,1.8,2
2015/9/9 4:37,0.8,1,0.8,4,1.3,3
2015/9/9 4:38,0.9,1,0.9,4,1.8,3
2015/9/9 4:39,1,1,1,1,2,3
2015/9/9 4:40,1,2,1,1,1.3,2
2015/9/9 4:41,1,2,1.1,2,1,3
2015/9/9 4:42,1.1,2,1.1,2,1.4,2
2015/9/9 4:43,1,2,1,2,1.6,2
2015/9/9 4:44,0.9,2,1,2,0.9,2
2015/9/9 4:45,0.9,2,0.9,2,1.8,2
2015/9/9 4:46,0.9,2,0.9,2,2,1
2015/9/9 4:47,0.9,2,0.9,2,1.8,1
2015/9/9 4:48,0.9,2,1,2,1.5,1
2015/9/9 4:49,0.8,2,0.9,2,1.1,16
2015/9/9 4:50,0.8,1,0.9,2,1.5,16
2015/9/9 4:51,0.9,1,0.9,2,1.5,15
2015/9/9 4:52,1,1,1,2,3.5,14
2015/9/9 4:53,1,1,1,2,1.8,16
2015/9/9 4:54,1.2,1,1.2,1,5.2,16
2015/9/9 4:55,1.5,16,1.5,16,5.8,15
2015/9/9 4:56,1.9,16,1.9,16,7.2,16
2015/9/9 4:57,2.2,16,2.2,16,6.3,14
2015/9/9 4:58,2.6,16,2.6,16,6.8,15
2015/9/9 4:59,3,16,3,16,6.7,16
2015/9/9 5:00,3.3,16,3.3,16,6.5,16
2015/9/9 5:01,3.6,16,3.6,16,6.2,16
2015/9/9 5:02,3.8,16,3.8,16,6.1,15
2015/9/9 5:03,4.2,16,4.2,16,6,16
2015/9/9 5:04,4.3,16,4.3,16,5.1,16
2015/9/9 5:05,4.3,16,4.3,16,4.9,16
2015/9/9 5:06,4.1,16,4.3,16,5.1,16
2015/9/9 5:07,3.9,16,4.1,16,3,16
2015/9/9 5:08,3.6,16,3.8,16,3.9,14
2015/9/9 5:09,3.5,16,3.6,16,4.8,16
2015/9/9 5:10,3.3,16,3.5,16,4.4,16
2015/9/9 5:11,3.2,16,3.3,16,4.1,16
2015/9/9 5:12,3.1,16,3.2,16,5.7,15
2015/9/9 5:13,2.8,16,3.1,16,4.5,15
2015/9/9 5:14,2.7,16,2.8,16,5.4,15
2015/9/9 5:15,2.6,16,2.7,16,3.5,16
2015/9/9 5:16,2.6,16,2.6,16,5,16
2015/9/9 5:17,2.7,16,2.7,16,5.5,16
2015/9/9 5:18,2.9,16,2.9,16,6.1,16
2015/9/9 5:19,2.8,16,2.9,16,3.1,16
2015/9/9 5:20,2.8,16,2.8,16,4.5,1
2015/9/9 5:21,2.9,15,2.9,16,7.5,16
2015/9/9 5:22,3,15,3,16,5.4,16
2015/9/9 5:23,3.1,16,3.1,16,5.1,16
2015/9/9 5:24,3.2,16,3.2,16,6.4,16
2015/9/9 5:25,3.2,16,3.2,16,5.5,16
2015/9/9 5:26,3.1,16,3.2,16,4.7,16
2015/9/9 5:27,2.9,16,3.1,16,1.9,10
2015/9/9 5:28,2.6,16,2.8,16,3.1,14
2015/9/9 5:29,2.6,16,2.6,16,3.9,14
2015/9/9 5:30,2.4,16,2.6,16,1.5,12
2015/9/9 5:31,2.1,16,2.4,16,1.8,16
2015/9/9 5:32,1.8,16,2.1,16,1.5,4
2015/9/9 5:33,1.7,16,1.8,16,1.8,5
2015/9/9 5:34,1.4,1,1.7,16,1.9,7
2015/9/9 5:35,1.3,1,1.4,16,2.2,8
2015/9/9 5:36,1,2,1.3,16,0.6,8
2015/9/9 5:37,1.1,3,1.1,16,2.4,7
2015/9/9 5:38,1.1,5,1.1,16,1.6,9
2015/9/9 5:39,0.9,6,1.1,16,1,8
2015/9/9 5:40,0.9,7,0.9,16,0.8,12
2015/9/9 5:41,0.8,8,0.9,16,0.8,16
2015/9/9 5:42,0.8,9,0.8,16,1.8,16
2015/9/9 5:43,0.8,10,0.8,16,1.9,16
2015/9/9 5:44,0.7,11,0.8,1,1.5,14
2015/9/9 5:45,0.7,11,0.7,1,1,10
2015/9/9 5:46,0.7,11,0.7,2,1.5,9
2015/9/9 5:47,0.7,12,0.7,3,1.6,13
2015/9/9 5:48,0.7,12,0.7,5,2.1,12
2015/9/9 5:49,0.9,13,0.9,6,2.6,14
2015/9/9 5:50,1.1,13,1.1,13,2.5,15
2015/9/9 5:51,1.2,13,1.2,13,2,13
2015/9/9 5:52,1.2,13,1.3,13,1.5,15
2015/9/9 5:53,1.2,13,1.2,13,2,1
2015/9/9 5:54,1.5,13,1.5,13,5.4,16
2015/9/9 5:55,1.8,14,1.8,14,4.9,15
2015/9/9 5:56,2,14,2,14,6.3,3
2015/9/9 5:57,2.3,15,2.3,15,5.5,16
2015/9/9 5:58,2.6,15,2.6,15,8.1,16
2015/9/9 5:59,2.8,16,2.8,15,6.1,16
2015/9/9 6:00,3.1,16,3.1,16,7.2,16
2015/9/9 6:01,3.5,16,3.5,16,9.8,16
2015/9/9 6:02,4,16,4,16,9.5,16
2015/9/9 6:03,4.3,16,4.3,16,8.7,16
2015/9/9 6:04,4.4,16,4.4,16,7.9,16
2015/9/9 6:05,4.6,16,4.6,16,9.5,15
2015/9/9 6:06,4.9,16,4.9,16,10.1,16
2015/9/9 6:07,5.2,16,5.2,16,8.4,16
2015/9/9 6:08,5.1,16,5.2,16,8.2,16
2015/9/9 6:09,5.1,16,5.1,16,7.1,2
2015/9/9 6:10,5.2,16,5.2,16,8.6,1
2015/9/9 6:11,5.3,16,5.3,16,11.7,1
2015/9/9 6:12,5.3,16,5.4,16,11.8,16
2015/9/9 6:13,5.7,16,5.7,16,14.9,16
2015/9/9 6:14,6,16,6,16,13.3,16
2015/9/9 6:15,6.1,16,6.3,16,11.9,16
2015/9/9 6:16,5.9,16,6.1,16,9.8,16
2015/9/9 6:17,6.4,16,6.4,16,16.3,16
2015/9/9 6:18,6.8,16,6.8,16,14.1,16
2015/9/9 6:19,7.5,16,7.5,16,18.3,16
2015/9/9 6:20,7.9,16,7.9,16,12.5,16
2015/9/9 6:21,7.9,16,7.9,16,17,16
2015/9/9 6:22,8.4,16,8.4,16,16.2,1
2015/9/9 6:23,8.6,16,8.6,16,18.1,16
2015/9/9 6:24,8.7,16,8.8,16,16.5,16
2015/9/9 6:25,8.8,16,8.8,16,12.3,1
2015/9/9 6:26,9.5,16,9.5,16,17.5,16
2015/9/9 6:27,9.5,16,9.6,16,17.9,16
2015/9/9 6:28,9.8,16,9.8,16,18.1,16
2015/9/9 6:29,9.4,16,9.8,16,15.2,1
2015/9/9 6:30,9.3,16,9.4,16,13.6,1
2015/9/9 6:31,9.5,16,9.6,16,14.4,16
2015/9/9 6:32,9,16,9.4,16,11.4,16
2015/9/9 6:33,8.8,16,9,16,14.5,16
2015/9/9 6:34,9.1,16,9.1,16,16.5,16
2015/9/9 6:35,9.3,16,9.3,16,15.2,16
2015/9/9 6:36,8.8,16,9.3,16,11,16
2015/9/9 6:37,8.6,16,8.8,16,13.4,16
2015/9/9 6:38,8,16,8.5,16,11.6,15
2015/9/9 6:39,7.9,16,7.9,16,12.5,16
2015/9/9 6:40,7.9,16,8,16,13.5,16
2015/9/9 6:41,7.8,16,8,16,13.3,16
2015/9/9 6:42,7.9,16,7.9,16,12.5,1
2015/9/9 6:43,7.6,16,7.9,16,10.9,1
2015/9/9 6:44,7,16,7.5,16,13.6,15
2015/9/9 6:45,6.6,16,6.9,16,13.9,16
2015/9/9 6:46,7,16,7,16,16.6,16
2015/9/9 6:47,6.9,16,7,16,12.2,15
2015/9/9 6:48,7.3,16,7.3,16,15.9,16
2015/9/9 6:49,7.1,16,7.4,16,13,16
2015/9/9 6:50,7.2,16,7.2,16,14.3,16
2015/9/9 6:51,7.3,16,7.3,16,13.6,16
2015/9/9 6:52,7.2,16,7.3,16,12.4,16
2015/9/9 6:53,7.7,16,7.7,16,15.6,16
2015/9/9 6:54,8,16,8,16,13.4,16
2015/9/9 6:55,8.1,16,8.1,16,11.7,16
2015/9/9 6:56,7.8,16,8,16,14,16
2015/9/9 6:57,7.7,16,7.8,16,12.1,15
2015/9/9 6:58,7.7,16,7.7,16,14.3,16
2015/9/9 6:59,7.9,16,7.9,16,13,15
2015/9/9 7:00,7.7,16,7.9,16,11.5,16
2015/9/9 7:01,7.6,16,7.7,16,13.6,15
2015/9/9 7:02,7.6,16,7.7,16,18.1,16
2015/9/9 7:03,7.3,16,7.6,16,13.6,16
2015/9/9 7:04,7.3,16,7.4,16,13.5,16
2015/9/9 7:05,6.8,16,7.3,16,5.1,14
2015/9/9 7:06,6.7,16,6.8,16,11.7,1
2015/9/9 7:07,6.6,16,6.7,16,11.3,14
2015/9/9 7:08,6.2,16,6.6,16,9.3,16
2015/9/9 7:09,5.8,16,6.1,16,10,2
2015/9/9 7:10,5.5,16,5.8,16,6.4,1
2015/9/9 7:11,5.4,16,5.5,16,9.3,16
2015/9/9 7:12,5.5,16,5.5,16,13.1,16
2015/9/9 7:13,5.4,16,5.4,16,11.5,16
2015/9/9 7:14,5.5,16,5.5,16,16.2,16
2015/9/9 7:15,5.9,16,5.9,16,10.1,15
2015/9/9 7:16,5.7,16,5.9,16,7.5,16
2015/9/9 7:17,5.5,16,5.7,16,9.2,16
2015/9/9 7:18,5.7,16,5.7,16,9.3,1
2015/9/9 7:19,5.8,16,5.8,16,10.6,16
2015/9/9 7:20,6.1,16,6.2,16,12.8,16
2015/9/9 7:21,6,16,6.1,16,8.9,2
2015/9/9 7:22,5.9,16,6,16,14.1,1
2015/9/9 7:23,5.9,16,6,16,9.1,16
2015/9/9 7:24,5.5,16,5.9,16,11.4,16
2015/9/9 7:25,5.3,16,5.5,16,7.6,1
2015/9/9 7:26,5.6,16,5.6,16,12.3,1
2015/9/9 7:27,5.7,1,5.8,16,14.3,16
2015/9/9 7:28,5.6,16,5.8,16,8.5,1
2015/9/9 7:29,5.6,1,5.7,16,12.5,16
2015/9/9 7:30,5.6,1,5.6,16,11.9,1
2015/9/9 7:31,5.8,1,5.8,16,13.2,16
2015/9/9 7:32,5.5,1,5.8,16,8.6,2
2015/9/9 7:33,5.5,1,5.6,16,9,1
2015/9/9 7:34,5.5,1,5.6,1,7.8,1
2015/9/9 7:35,5.9,1,5.9,1,11.9,1
2015/9/9 7:36,5.8,16,5.9,1,9.5,14
2015/9/9 7:37,5.6,1,5.7,1,8.4,1
2015/9/9 7:38,5.7,1,5.7,1,7.5,15
2015/9/9 7:39,5.9,1,5.9,1,14,15
2015/9/9 7:40,5.7,16,5.9,1,10.7,16
2015/9/9 7:41,5.6,16,5.7,1,9.4,1
2015/9/9 7:42,5.8,16,5.8,1,8.4,3
2015/9/9 7:43,5.5,16,5.7,1,6.9,16
2015/9/9 7:44,5.1,1,5.5,1,5,16
2015/9/9 7:45,4.7,16,5.1,16,5.2,1
2015/9/9 7:46,4.5,16,4.6,1,5.2,15
2015/9/9 7:47,4.3,16,4.5,1,5.1,15
2015/9/9 7:48,4.1,16,4.3,1,4.2,16
2015/9/9 7:49,3.5,16,4.1,1,3.1,16
2015/9/9 7:50,3,16,3.5,16,2.5,16
2015/9/9 7:51,2.5,15,3,16,3,11
2015/9/9 7:52,2.1,15,2.5,16,2.5,11
2015/9/9 7:53,1.9,15,2.1,16,1.3,2
2015/9/9 7:54,1.7,15,1.9,1,2.4,8
2015/9/9 7:55,1.6,14,1.7,16,2.6,9
2015/9/9 7:56,1.3,14,1.6,16,2,11
2015/9/9 7:57,1.2,13,1.3,16,3.6,9
2015/9/9 7:58,1.1,11,1.1,16,3.1,9
2015/9/9 7:59,1.1,10,1.1,16,3.7,7
2015/9/9 8:00,1.2,9,1.2,16,3.7,6
2015/9/9 8:01,1.2,9,1.3,15,1.4,7
2015/9/9 8:02,1.2,9,1.2,15,3.2,11
2015/9/9 8:03,1.4,9,1.4,15,3.6,9
2015/9/9 8:04,1.5,9,1.5,15,2.4,9
2015/9/9 8:05,1.4,9,1.4,14,2.2,4
2015/9/9 8:06,1.5,8,1.5,9,2,4
2015/9/9 8:07,1.6,7,1.6,7,3.8,7
2015/9/9 8:08,1.7,7,1.7,7,5.6,16
2015/9/9 8:09,1.8,6,1.8,7,7.6,16
2015/9/9 8:10,1.9,2,1.9,5,6,16
2015/9/9 8:11,2.1,16,2.1,1,7.1,13
2015/9/9 8:12,2.3,1,2.3,1,6.1,16
2015/9/9 8:13,2.5,1,2.5,1,6.7,14
2015/9/9 8:14,2.8,16,2.8,1,7.7,16
2015/9/9 8:15,3,16,3,16,7.8,16
2015/9/9 8:16,3.1,16,3.1,16,4.4,1
2015/9/9 8:17,3.2,16,3.2,16,4.8,16
2015/9/9 8:18,3.3,16,3.4,16,7.7,15
2015/9/9 8:19,3.2,15,3.3,16,4.9,16
2015/9/9 8:20,3.3,15,3.3,16,8.6,15
2015/9/9 8:21,3.7,15,3.7,15,11.6,14
2015/9/9 8:22,3.9,15,3.9,15,10.5,15
2015/9/9 8:23,3.8,15,3.9,15,6,15
2015/9/9 8:24,3.8,15,3.8,15,6.2,16
2015/9/9 8:25,3.7,15,3.8,15,7,14
2015/9/9 8:26,3.9,15,3.9,15,7.9,15
2015/9/9 8:27,3.9,15,4,15,6.1,15
2015/9/9 8:28,4,15,4,15,10,16
2015/9/9 8:29,4.4,15,4.4,15,13.9,15
2015/9/9 8:30,4.4,15,4.5,15,6.9,16
2015/9/9 8:31,4.1,15,4.4,15,6.1,1
2015/9/9 8:32,4,16,4.1,15,7.1,16
2015/9/9 8:33,4,16,4.1,15,7.5,15
2015/9/9 8:34,4,16,4,15,7.6,1
2015/9/9 8:35,4.1,16,4.1,15,8.1,15
2015/9/9 8:36,4.2,16,4.2,15,10.3,15
2015/9/9 8:37,4.5,16,4.5,15,10.3,14
2015/9/9 8:38,4.4,16,4.5,15,8.3,1
2015/9/9 8:39,4.3,15,4.4,15,13.9,15
2015/9/9 8:40,4.8,15,4.8,15,13.4,15
2015/9/9 8:41,5.2,15,5.2,15,12.5,16
2015/9/9 8:42,5.5,15,5.5,15,11,16
2015/9/9 8:43,5.6,15,5.6,15,11.8,15
2015/9/9 8:44,5.9,15,5.9,15,11.9,16
2015/9/9 8:45,5.8,15,6,15,6.9,16
2015/9/9 8:46,5.7,15,5.9,15,6.7,1
2015/9/9 8:47,5.4,16,5.7,15,4.7,1
2015/9/9 8:48,5,16,5.3,15,2.2,2
2015/9/9 8:49,4.7,16,5,15,3.9,13
2015/9/9 8:50,3.9,15,4.6,15,3.1,11
2015/9/9 8:51,3.3,15,3.9,15,2.7,13
2015/9/9 8:52,2.8,15,3.3,15,2.6,13
2015/9/9 8:53,2.4,14,2.8,15,1.5,13
2015/9/9 8:54,1.9,13,2.3,15,1.9,9
2015/9/9 8:55,1.6,13,1.9,15,1,7
2015/9/9 8:56,1.3,13,1.5,15,1.6,3
2015/9/9 8:57,1.2,13,1.3,16,1.5,4
2015/9/9 8:58,1.3,11,1.3,16,2.7,7
2015/9/9 8:59,1.3,10,1.4,16,4.2,6
2015/9/9 9:00,1.4,8,1.4,15,4.2,6
2015/9/9 9:01,1.5,7,1.5,15,4.1,6
2015/9/9 9:02,1.4,6,1.5,15,2.1,10
2015/9/9 9:03,1.4,6,1.4,14,0.9,5
2015/9/9 9:04,1.4,6,1.4,13,2.6,13
2015/9/9 9:05,1.5,6,1.5,13,2.2,13
2015/9/9 9:06,1.5,7,1.5,8,1.6,14
2015/9/9 9:07,1.5,8,1.5,8,2.4,11
2015/9/9 9:08,1.5,9,1.5,8,3.5,10
2015/9/9 9:09,1.6,9,1.6,9,4.3,10
2015/9/9 9:10,1.6,10,1.6,9,5.1,9
2015/9/9 9:11,1.8,10,1.8,10,6.7,9
2015/9/9 9:12,2.1,10,2.1,10,5.7,9
2015/9/9 9:13,2.5,11,2.5,11,7.8,11
2015/9/9 9:14,2.9,11,2.9,11,6.5,13
2015/9/9 9:15,2.9,10,2.9,11,3,13
2015/9/9 9:16,2.8,10,2.9,11,1.9,4
2015/9/9 9:17,2.8,11,2.9,11,2.1,15
2015/9/9 9:18,2.8,11,2.8,11,2.6,13
2015/9/9 9:19,2.7,12,2.8,11,3.6,8
2015/9/9 9:20,2.5,11,2.7,11,2.5,8
2015/9/9 9:21,2.2,11,2.5,11,2.6,8
2015/9/9 9:22,1.9,12,2.1,11,2,10
2015/9/9 9:23,1.5,12,1.8,11,2,10
2015/9/9 9:24,1.2,11,1.5,11,1.4,13
2015/9/9 9:25,1.1,12,1.2,10,1.4,13
2015/9/9 9:26,1.2,11,1.2,10,2.2,9
2015/9/9 9:27,1.3,10,1.3,11,2.5,9
2015/9/9 9:28,1.4,10,1.4,12,3.3,9
2015/9/9 9:29,1.4,10,1.4,12,3.6,9
2015/9/9 9:30,1.5,10,1.5,11,3,9
2015/9/9 9:31,1.6,10,1.6,11,3,11
2015/9/9 9:32,1.8,11,1.8,12,3.8,12
2015/9/9 9:33,1.9,11,1.9,11,2.9,9
2015/9/9 9:34,2,11,2,11,3.9,11
2015/9/9 9:35,2,10,2,11,2.5,9
2015/9/9 9:36,2,10,2,11,3.6,8
2015/9/9 9:37,2.1,10,2.1,10,4.7,9
2015/9/9 9:38,2,10,2.1,10,4.2,9
2015/9/9 9:39,1.9,10,2,10,4.1,8
2015/9/9 9:40,2,10,2,10,4.3,9
2015/9/9 9:41,2,10,2,10,2.5,10
2015/9/9 9:42,1.9,10,2,10,2.9,11
2015/9/9 9:43,1.9,10,1.9,10,3.3,10
2015/9/9 9:44,1.8,10,1.9,10,1.9,11
2015/9/9 9:45,1.8,10,1.8,10,1.4,11
2015/9/9 9:46,1.7,11,1.8,10,0.8,12
2015/9/9 9:47,1.5,11,1.7,10,1.1,4
2015/9/9 9:48,1.4,11,1.4,10,1.6,7
2015/9/9 9:49,1.4,10,1.4,10,3,8
2015/9/9 9:50,1.3,10,1.4,10,3.3,8
2015/9/9 9:51,1.4,10,1.4,10,3,9
2015/9/9 9:52,1.4,10,1.4,10,2.4,10
2015/9/9 9:53,1.2,9,1.3,10,2.1,9
2015/9/9 9:54,1.2,9,1.2,10,1.9,12
2015/9/9 9:55,1.3,9,1.3,10,3.3,13
2015/9/9 9:56,1.5,9,1.5,11,3.7,12
2015/9/9 9:57,1.7,10,1.7,10,3.5,12
2015/9/9 9:58,1.9,10,1.9,10,3.7,11
2015/9/9 9:59,1.9,11,1.9,10,2.5,12
2015/9/9 10:00,1.8,11,1.9,10,2.5,12
2015/9/9 10:01,1.7,11,1.8,10,3.3,9
2015/9/9 10:02,1.8,11,1.8,10,3.6,10
2015/9/9 10:03,2,11,2,11,4.3,9
2015/9/9 10:04,2.2,11,2.2,11,3.5,10
2015/9/9 10:05,2.2,11,2.3,11,3.1,13
2015/9/9 10:06,2.1,11,2.2,11,1.8,11
2015/9/9 10:07,1.9,11,2.1,11,1.1,8
2015/9/9 10:08,1.8,10,1.9,11,1.8,8
2015/9/9 10:09,1.7,10,1.8,11,2.2,9
2015/9/9 10:10,1.8,10,1.8,11,3.7,10
2015/9/9 10:11,2,10,2,11,4.2,10
2015/9/9 10:12,2,10,2,11,2.9,9
2015/9/9 10:13,1.8,10,1.9,11,3.5,12
2015/9/9 10:14,1.7,10,1.8,11,3.1,9
2015/9/9 10:15,1.7,10,1.7,11,3.5,10
2015/9/9 10:16,1.8,10,1.8,11,3.8,9
2015/9/9 10:17,2,10,2,10,3.3,8
2015/9/9 10:18,2,10,2.1,10,3.2,8
2015/9/9 10:19,2,10,2,10,2.2,13
2015/9/9 10:20,2,10,2,10,3.3,15
2015/9/9 10:21,1.9,11,2,10,3.3,15
2015/9/9 10:22,2.1,11,2.1,10,4.5,14
2015/9/9 10:23,2.2,12,2.2,11,4.2,14
2015/9/9 10:24,2.3,12,2.3,12,3.8,15
2015/9/9 10:25,2.3,13,2.3,12,2.6,15
2015/9/9 10:26,2.3,14,2.3,12,3.5,16
2015/9/9 10:27,2.1,14,2.3,12,1.3,1
2015/9/9 10:28,2,14,2.1,12,0.3,13
2015/9/9 10:29,1.9,14,1.9,12,0,11
2015/9/9 10:30,1.7,14,1.8,12,1.4,1
2015/9/9 10:31,1.5,14,1.6,12,2.2,15
2015/9/9 10:32,1.5,14,1.5,12,2.5,13
2015/9/9 10:33,1.3,14,1.4,12,2,12
2015/9/9 10:34,1,14,1.3,12,1.3,6
2015/9/9 10:35,1.1,13,1.1,13,3.5,9
2015/9/9 10:36,0.9,12,1.1,14,2.2,8
2015/9/9 10:37,1,13,1,14,2,16
2015/9/9 10:38,1,14,1,14,1.4,2
2015/9/9 10:39,1.1,16,1.1,14,1.4,3
2015/9/9 10:40,1.2,7,1.2,14,2.2,9
2015/9/9 10:41,1.2,8,1.2,14,2.9,9
2015/9/9 10:42,1.2,8,1.2,14,3.2,9
2015/9/9 10:43,1.2,8,1.2,14,1.8,9
2015/9/9 10:44,1.3,8,1.3,8,2.4,11
2015/9/9 10:45,1.3,9,1.3,8,2.9,11
2015/9/9 10:46,1.4,10,1.4,9,2.6,12
2015/9/9 10:47,1.6,10,1.6,10,3.3,14
2015/9/9 10:48,1.6,10,1.6,10,3.3,15
2015/9/9 10:49,1.7,11,1.7,10,3.2,15
2015/9/9 10:50,1.7,11,1.8,11,2.4,14
2015/9/9 10:51,1.8,12,1.8,11,2.9,14
2015/9/9 10:52,1.8,12,1.8,11,3.2,15
2015/9/9 10:53,1.9,13,1.9,13,2.7,16
2015/9/9 10:54,1.9,13,1.9,13,3,14
2015/9/9 10:55,1.9,14,1.9,13,3.1,16
2015/9/9 10:56,1.8,14,1.9,13,2.4,14
2015/9/9 10:57,1.8,14,1.9,13,3,15
2015/9/9 10:58,2,14,2,14,3.8,14
2015/9/9 10:59,2,14,2,14,3,14
2015/9/9 11:00,2.1,14,2.1,14,4.4,16
2015/9/9 11:01,2.2,15,2.2,14,3.5,1
2015/9/9 11:02,2.1,15,2.2,14,4.7,2
2015/9/9 11:03,2.3,15,2.3,15,6.4,3
2015/9/9 11:04,2.4,15,2.4,15,4.1,3
2015/9/9 11:05,2.4,16,2.4,15,3.2,4
2015/9/9 11:06,2.4,16,2.4,15,2.6,1
2015/9/9 11:07,2.3,16,2.4,15,1.8,1
2015/9/9 11:08,2,1,2.2,15,1.1,15
2015/9/9 11:09,1.9,1,2,15,2.1,8
2015/9/9 11:10,1.8,1,1.9,15,2.5,14
2015/9/9 11:11,1.9,1,1.9,15,3.2,13
2015/9/9 11:12,1.9,16,1.9,15,2.6,15
2015/9/9 11:13,1.5,15,1.8,15,2,15
2015/9/9 11:14,1.3,15,1.5,15,1.9,16
2015/9/9 11:15,1.2,14,1.3,16,1,13
2015/9/9 11:16,1,14,1.2,16,0.8,12
2015/9/9 11:17,1,13,1,16,1.9,9
2015/9/9 11:18,1,13,1,1,0.9,1
2015/9/9 11:19,1.1,14,1.1,1,1.5,16
2015/9/9 11:20,1,14,1.1,1,2,1
2015/9/9 11:21,1,15,1.1,16,3.8,16
2015/9/9 11:22,0.8,15,1,16,1.4,2
2015/9/9 11:23,1,15,1,15,3.1,14
2015/9/9 11:24,1,15,1,15,2.9,13
2015/9/9 11:25,1,15,1,14,1.1,12
2015/9/9 11:26,1,15,1,13,0.8,11
2015/9/9 11:27,1.1,15,1.1,13,3.1,9